Location: Poughquag
(41.6090°N, 73.6820°W)
Time: 18:59:30
(UTC-05:00)

A-11 Canister half - Pass Details

Date: 11 December 2023
Orbit: 1526 x 1682 km, 47.3° (Epoch: 23 February)

Event Time Altitude Azimuth Distance (km) Brightness Sun altitude
Rises 16:48:03 0° 227° (SW) 4,885 13.5 -4.7°
Reaches altitude 10° 16:51:11 10° 225° (SW) 3,913 12.6 -5.2°
Maximum altitude 17:01:09 69° 145° (SE) 1,778 9.3 -6.9°
Drops below altitude 10° 17:11:12 10° 65° (ENE) 3,937 10.4 -8.6°
Enters shadow 17:11:17 10° 65° (ENE) 3,961 10.4 -8.6°
